Location: Saluda
(35.2377°N, 82.3468°W)
Time: 06:56:14
(UTC+00:00)

Vanguard 2 - Pass Details

Date: 03 October 2022
Orbit: 553 x 2933 km, 32.9° (Epoch: 04 December)

Event Time Altitude Azimuth Distance (km) Brightness Sun altitude
Rises 01:10:03 0° 283° (WNW) 6,629 13.7 -24.8°
Reaches altitude 10° 01:14:56 10° 276° (W) 5,725 13.0 -25.8°
Maximum altitude 01:29:51 35° 220° (SW) 3,910 11.2 -28.7°
Enters shadow 01:41:17 14° 165° (SSE) 4,681 11.2 -31.0°
